Regional Weather Roundup
Issued by NWS Newport/Morehead, NC

Current Version | Previous Version | Text Only | Print | Product List | Glossary On
Versions: 1 2 3 4 5 6 7 8 9 10 11 12 13 14 15 16 17 18 19 20 21 22 23 24 25 26 27 28 29 30 31 32 33 34 35 36 37 38 39 40 41 42 43 44 45 46 47 48 49 50
000
ASUS42 KMHX 241413
RWRMHX
WEATHER ROUNDUP FOR EASTERN NORTH CAROLINA
NATIONAL WEATHER SERVICE NEWPORT/MOREHEAD CITY NC
1000 AM EDT SAT JUN 24 2017

NOTE: "FAIR" INDICATES FEW OR NO CLOUDS BELOW 12,000 FEET
WITH NO SIGNIFICANT WEATHER AND/OR OBSTRUCTIONS TO VISIBILITY

NCZ015>017-031-032-045>047-102-103-241500-
NORTH COAST

CITY           SKY/WX    TMP DP  RH WIND       PRES   REMARKS
EDENTON        PTSUNNY   85  74  70 W12G22    29.90S
ELIZABETH CITY CLOUDY    83  74  74 W15G23    29.88R
KITTY HAWK     PTSUNNY   83  73  69 W15G23    29.88R
MANTEO         CLOUDY    83  74  75 W18G24    29.90R

$$

NCZ045>047-081-094-103-104-241500-
CENTRAL COAST

CITY           SKY/WX    TMP DP  RH WIND       PRES   REMARKS
FRISCO         SUNNY     82  75  79 SW21G29   29.93R

$$

NCZ095-097-098-100-101-241500-
SOUTHERN COAST

CITY           SKY/WX    TMP DP  RH WIND       PRES   REMARKS
BEAUFORT       CLOUDY    84  79  85 SW22G30   29.95R
CEDAR ISLAND   NOT AVBL
JACKSONVILLE   MOSUNNY   85  75  72 W13G20    29.94R
PINEY ISLAND   MOSUNNY  N/A N/A N/A SW18G25   29.93S
WILMINGTON     MOSUNNY   86  75  69 W14G24    29.96S


$$

NCZ011>013-027>030-043-044-078>080-089-090>093-098-241500-
COASTAL PLAIN

CITY           SKY/WX    TMP DP  RH WIND       PRES   REMARKS
AHOSKIE          N/A     81  71  72 W3        29.91R
CLINTON        PTSUNNY   83  76  79 W12G17    29.95S
ELIZABETHTOWN  NOT AVBL
GOLDSBORO      MOSUNNY   84  79  84 W14       29.92
GREENVILLE     PTSUNNY   82  73  74 W7G24     29.94S
HAVELOCK       PTSUNNY   86  74  67 SW17      29.95R
KENANSVILLE    CLOUDY    84  75  74 W10G20    29.94S
KINSTON        PTSUNNY   82  73  74 W7G16     29.94R
NEW BERN       MOSUNNY   85  75  72 SW13G24   29.94S
RICHLANDS      PTSUNNY   86  76  71 SW13G20   29.95S
ROCKY MOUNT    PTSUNNY   84  74  71 W10       29.92S
WASHINGTON     PTSUNNY  N/A N/A N/A W14       29.92S
WHITEVILLE     MOSUNNY   84  74  72 SW8       29.97S

$$

AMZ130-135-150-152-154-156-158-170-250-252-270-ANZ085-086-088-633-658-670-241500-
MARINE OBSERVATIONS

STATION/POSITION TIME  TEMP    WIND        PRES    WAVE   SWELL
                       AIR SEA DIR/SP/G            HT/PER HT/PER
                 (UTC) (F)     (DEG/KT/KT) (MB)    (FT/S) (FT/S)
CHESAPEAKE LIGHT NOT AVBL
64 E VA BEACH    1350   75 71  240/ 19/ 23 1011.3    8/ 8
DUCK             1348   81 62  250/ 16/ 25 1011.5
2 E DUCK         NOT AVBL
OREGON INLET     1348          230/ 19/ 22   N/A
13E OREGON INLT  1348      72                N/A     5/ 6   2/11
HATTERAS CG      1348   80 78  230/ 15/ 24 1013.2
DIAMOND BUOY     1350   80 80  240/ 23/ 27 1013.4    8/ 7
CAPE LOOKOUT     1400   82     230/ 14/ 21 1013.9
BEAUFORT LAB     1348   82 77  230/  9/ 17 1013.6
30 SE NEW RVR IN 1308   80 80  240/ 21/ 27 1014.7
30 SE NEW RVR IN 1343      80                N/A     8/ 7   2/11
27 SE WRIGHTSVLE 1308   79 79  220/ 19/ 27 1014.4
5 SE WRIGHTSVLE  1308   80 78  220/ 14/ 21 1014.6
225 S CAPE HAT   1350   81 80  200/ 14/ 16 1018.8    4/ 5   2/ 9
41 SE CHARLESTON 1350   81 81  220/ 17/ 21 1016.4    5/ 6   2/10

$$




USA.gov is the U.S. government's official web portal to all federal, state and local government web resources and services.